Home > Weather > Koudougou > Past weeks

Flag for Burkina Faso Weather for the Past 2 Weeks in Koudougou, Burkina Faso

Now
95 °F

Passing clouds.


Feels Like: 98 °F
Forecast: N/A
Wind: 5 mph from Northeast

Location: Ouagadougou Airport

Current Time: May 6, 2016 at 7:34:22 PM

Latest Report: May 6, 2016 at 7:00 PM


Visibility: 5 mi

Pressure: 29.80 "Hg

Humidity: 39%

Dew Point: 66 °F

Location of KoudougouLocation

Historic Weather in Koudougou — Graph

°F

Koudougou Temperature Yesterday

Maximum temperature yesterday: 106 °F (at 3:00 PM)
Minimum temperature yesterday: 88 °F (at 2:00 AM)
Average temperature yesterday: 95 °F

High & Low Weather Summary for the Past Weeks

 TemperatureHumidityPressure
High109 °F (May 1, 3:00 PM)94% (Apr 27, 10:00 PM)29.95 "Hg (Apr 27, 10:00 PM)
Low75 °F (Apr 27, 10:00 PM)15% (May 1, 3:00 PM)29.68 "Hg (Apr 24, 4:00 PM)
Average95 °F43%29.81 "Hg
* Reported Apr 21 6:00 PM — May 6 6:00 PM, Koudougou, Weather by CustomWeather, © 2016

Note: Actual official high and low records may vary slightly from our data, if they occured in-between our weather recording intervals... More about our weather records

Advertising

Koudougou Weather History for the Previous 24 Hours

Scroll right to see more
 ConditionsComfort  
Time TempWeatherWind HumidityBarometerVisibility
6:00 PM
Fri, May 6
95 °FSandstorm.10 mph39%29.77 "Hg1 mi
5:00 PM100 °FPassing clouds.2 mph33%29.74 "HgN/A
4:00 PM100 °FPassing clouds.3 mph33%29.77 "HgN/A
3:00 PM100 °FPassing clouds.7 mph35%29.80 "HgN/A
1:00 PM100 °FPassing clouds.12 mph35%29.86 "HgN/A
12:00 PM99 °FPassing clouds.14 mph42%29.89 "HgN/A
11:00 AM97 °FPassing clouds.13 mph44%29.89 "HgN/A
10:00 AM95 °FPassing clouds.10 mph47%29.92 "HgN/A
9:00 AM93 °FPassing clouds.13 mph49%29.92 "HgN/A
8:00 AM91 °FPassing clouds.14 mph52%29.89 "HgN/A
7:10 AM90 °FPassing clouds.9 mph59%29.89 "HgN/A
7:00 AM90 °FPassing clouds.9 mph59%29.89 "HgN/A
6:00 AM90 °FThunderstorms. Scattered clouds.9 mph59%29.89 "HgN/A
5:00 AM90 °FThunderstorms. Passing clouds.2 mph59%29.86 "HgN/A
4:00 AM91 °FThunderstorms. Passing clouds.6 mph52%29.83 "HgN/A
3:00 AM91 °FThunderstorms. Passing clouds.8 mph52%29.80 "HgN/A
2:00 AM91 °FClear.12 mph52%29.83 "Hg10 mi
1:00 AM93 °FClear.12 mph49%29.86 "Hg10 mi
12:00 AM93 °FClear.13 mph49%29.86 "Hg10 mi
11:00 PM
Thu, May 5
95 °FClear.7 mph41%29.86 "Hg10 mi
10:00 PM95 °FClear.6 mph41%29.86 "Hg10 mi
9:00 PM97 °FClear.8 mph39%29.86 "Hg10 mi
8:00 PM99 °FClear.6 mph37%29.83 "Hg10 mi
7:00 PM100 °FClear.3 mph33%29.80 "Hg10 mi
Weather by CustomWeather, © 2016

See weather overviewHow to use our weather pages